"datetime","# probes","# resolvers","can_ipv6","can_ipv6_prbs","can_tcp","can_tcp_prbs","can_tcp6","can_tcp6_prbs","does_ecs","does_ecs_prbs","does_flagday","does_flagday_prbs","does_rov4","does_rov4_prbs","does_rov6","does_rov6_prbs","does_qnamemin","doesnt_qnamemin","does_qnamemin_prbs","doesnt_qnamemin_prbs","does_nxdomain","doesnt_nxdomain","does_nxdomain_prbs","doesnt_nxdomain_prbs","has_ta_19036","hasnt_ta_19036","has_ta_19036_prbs","hasnt_ta_19036_prbs","has_ta_20326","hasnt_ta_20326","has_ta_20326_prbs","hasnt_ta_20326_prbs","can_rsamd5","cannot_rsamd5","broken_rsamd5","can_rsamd5_prbs","cannot_rsamd5_prbs","broken_rsamd5_prbs","can_dsa","cannot_dsa","broken_dsa","can_dsa_prbs","cannot_dsa_prbs","broken_dsa_prbs","can_rsasha1","cannot_rsasha1","broken_rsasha1","can_rsasha1_prbs","cannot_rsasha1_prbs","broken_rsasha1_prbs","can_dsansec3","cannot_dsansec3","broken_dsansec3","can_dsansec3_prbs","cannot_dsansec3_prbs","broken_dsansec3_prbs","can_rsansec3","cannot_rsansec3","broken_rsansec3","can_rsansec3_prbs","cannot_rsansec3_prbs","broken_rsansec3_prbs","can_rsasha256","cannot_rsasha256","broken_rsasha256","can_rsasha256_prbs","cannot_rsasha256_prbs","broken_rsasha256_prbs","can_rsasha512","cannot_rsasha512","broken_rsasha512","can_rsasha512_prbs","cannot_rsasha512_prbs","broken_rsasha512_prbs","can_eccgost","cannot_eccgost","broken_eccgost","can_eccgost_prbs","cannot_eccgost_prbs","broken_eccgost_prbs","can_ecdsa256","cannot_ecdsa256","broken_ecdsa256","can_ecdsa256_prbs","cannot_ecdsa256_prbs","broken_ecdsa256_prbs","can_ecdsa384","cannot_ecdsa384","broken_ecdsa384","can_ecdsa384_prbs","cannot_ecdsa384_prbs","broken_ecdsa384_prbs","can_ed25519","cannot_ed25519","broken_ed25519","can_ed25519_prbs","cannot_ed25519_prbs","broken_ed25519_prbs","can_ed448","cannot_ed448","broken_ed448","can_ed448_prbs","cannot_ed448_prbs","broken_ed448_prbs","can_gost","cannot_gost","broken_gost","can_gost_prbs","cannot_gost_prbs","broken_gost_prbs","can_sha384","cannot_sha384","broken_sha384","can_sha384_prbs","cannot_sha384_prbs","broken_sha384_prbs","is_internal","is_forwarding","is_external","is_internal_prbs","is_forwarding_prbs","is_external_prbs"
2017-06-20T23:59:59Z,111,163,143,95,163,111,140,93,1,5,0,0,0,0,0,0,3,159,2,108,0,163,0,111,0,0,0,0,0,0,0,0,131,29,3,86,25,6,159,4,0,108,9,1,161,2,0,110,4,1,158,5,0,107,10,1,161,2,0,110,4,1,161,2,0,110,4,1,160,2,0,109,4,1,128,33,2,84,30,2,163,0,0,111,3,1,163,0,0,111,3,1,0,161,2,0,110,2,0,161,2,0,110,2,130,30,2,89,26,2,162,0,0,110,3,1,104,42,17,74,34,16
2017-06-21T23:59:59Z,112,162,141,95,162,112,138,93,3,6,0,0,0,0,0,0,3,159,2,110,0,162,0,112,0,0,0,0,0,0,0,0,128,30,4,85,26,7,159,3,0,109,9,1,162,0,0,112,3,1,159,3,0,109,9,1,162,0,0,112,3,1,162,0,0,112,3,1,162,0,0,112,3,1,126,34,2,84,31,2,162,0,0,112,3,1,162,0,0,112,3,1,0,160,2,0,111,2,0,160,2,0,111,2,129,31,2,89,27,2,161,0,1,111,3,2,104,42,16,75,34,16
2017-06-22T23:59:59Z,115,168,147,98,168,115,144,96,2,6,0,0,0,0,0,0,3,165,2,113,0,168,0,115,0,0,0,0,0,0,0,0,133,32,3,87,28,7,163,5,0,111,11,1,165,3,0,113,5,1,163,5,0,111,11,1,166,2,0,114,4,1,166,2,0,114,4,1,167,1,0,115,4,1,131,35,2,86,33,2,168,0,0,115,3,1,168,0,0,115,3,1,0,166,2,0,114,2,0,166,2,0,114,2,134,32,2,91,28,2,165,2,1,113,4,1,106,45,17,76,37,17
2017-06-23T23:59:59Z,114,165,144,97,165,114,141,95,2,6,0,0,0,0,0,0,3,162,2,112,0,165,1,114,0,0,0,0,0,0,0,0,134,29,2,89,27,5,162,2,1,111,10,1,163,1,1,112,5,1,161,3,1,110,10,2,165,0,0,114,4,1,165,0,0,114,4,1,165,0,0,114,4,1,130,33,2,86,32,2,165,0,0,114,4,1,165,0,0,114,4,1,0,163,2,0,113,2,0,163,2,0,113,2,132,31,2,90,29,2,163,1,1,112,5,2,104,44,17,75,37,16
2017-06-24T23:59:59Z,111,163,143,95,163,111,140,93,1,5,0,0,0,0,0,0,4,159,3,109,0,163,0,111,0,0,0,0,0,0,0,0,131,29,3,86,25,5,159,3,1,107,9,1,161,1,1,109,4,1,158,4,1,106,10,1,162,1,0,110,4,0,162,1,0,110,4,0,162,1,0,110,4,0,127,34,2,83,31,1,162,1,0,110,4,0,163,0,0,111,3,0,0,161,2,0,110,1,0,161,2,0,110,1,131,30,2,89,26,1,161,1,1,109,4,1,101,44,18,72,36,16
2017-06-25T23:59:59Z,110,164,144,94,164,110,141,92,0,4,0,0,0,0,0,0,2,162,1,109,0,164,0,110,0,0,0,0,0,0,0,0,133,28,3,86,25,5,162,2,0,108,9,0,164,0,0,110,4,0,161,3,0,107,11,0,164,0,0,110,4,0,164,0,0,110,4,0,164,0,0,110,4,0,130,32,2,84,31,1,164,0,0,110,4,0,164,0,0,110,4,0,0,162,2,0,109,1,0,162,2,0,109,1,133,29,2,89,26,1,164,0,0,110,4,0,102,44,18,74,34,16
2017-06-26T23:59:59Z,111,163,143,95,163,111,139,92,2,6,0,0,0,0,0,0,2,161,1,110,0,163,1,111,0,0,0,0,0,0,0,0,130,30,3,85,28,5,160,3,0,108,11,1,161,2,0,109,7,1,161,2,0,109,10,0,161,1,1,110,6,1,161,1,1,110,6,1,161,1,1,110,6,1,129,31,3,86,30,3,162,0,1,111,5,2,163,0,0,111,5,0,0,161,2,0,110,1,0,161,2,0,110,1,130,30,3,89,28,2,161,1,1,110,5,2,102,44,17,73,35,15
2017-06-27T23:59:59Z,115,169,149,99,169,115,146,97,1,5,0,0,0,0,0,0,3,166,2,113,0,169,0,115,0,0,0,0,0,0,0,0,134,32,3,88,30,6,164,5,0,112,12,1,165,4,0,113,8,1,163,6,0,111,13,1,165,4,0,113,8,1,165,4,0,113,8,1,165,4,0,113,8,1,132,35,2,87,34,2,169,0,0,115,6,1,169,0,0,115,6,1,0,167,2,0,114,2,0,167,2,0,114,2,136,31,2,92,30,2,165,4,0,113,8,1,102,49,18,75,37,16
2017-06-28T23:59:59Z,113,164,145,98,164,113,141,96,2,5,0,0,0,0,0,0,4,160,3,111,0,164,0,113,0,0,0,0,0,0,0,0,132,29,3,88,28,6,161,3,0,110,12,1,163,1,0,112,7,1,161,3,0,110,12,1,163,1,0,112,7,1,163,1,0,112,7,1,163,1,0,112,7,1,130,32,2,87,32,2,164,0,0,113,6,1,164,0,0,113,6,1,0,162,2,0,112,2,0,162,2,0,112,2,132,29,3,92,28,3,163,0,1,113,6,2,103,44,17,75,35,16
2017-06-29T23:59:59Z,112,163,143,96,163,112,139,94,0,5,0,0,0,0,0,0,4,159,3,110,0,163,0,112,0,0,0,0,0,0,0,0,130,27,6,87,26,8,158,4,1,109,12,1,162,0,1,112,5,1,157,5,1,108,13,1,161,2,0,111,6,0,161,2,0,111,6,0,161,2,0,111,6,0,128,33,2,85,33,1,163,0,0,112,5,0,163,0,0,112,5,0,0,161,2,0,111,1,0,161,2,0,111,1,131,30,2,90,28,1,161,2,0,111,6,0,100,46,17,73,36,16
2017-06-30T23:59:59Z,114,163,142,97,163,114,139,95,0,5,0,0,0,0,0,0,4,159,3,111,0,163,1,114,0,0,0,0,0,0,0,0,130,28,5,87,28,9,159,4,0,110,14,1,162,1,0,113,7,1,159,4,0,110,14,1,163,0,0,114,6,1,163,0,0,114,6,1,163,0,0,114,6,1,128,32,3,86,34,3,163,0,0,114,6,1,163,0,0,114,6,1,0,160,3,0,112,3,0,160,3,0,112,3,132,28,3,92,28,3,163,0,0,114,6,1,103,43,17,76,35,16
2017-07-01T23:59:59Z,111,157,137,95,157,111,134,93,0,5,0,0,0,0,0,0,3,154,2,109,0,157,0,111,0,0,0,0,0,0,0,0,126,29,2,87,28,6,156,1,0,110,12,0,157,0,0,111,6,0,154,3,0,108,13,0,157,0,0,111,6,0,157,0,0,111,6,0,157,0,0,111,6,0,122,33,2,84,34,1,157,0,0,111,6,0,157,0,0,111,6,0,0,155,2,0,110,1,0,155,2,0,110,1,125,30,2,89,29,1,157,0,0,111,6,0,100,41,16,74,34,16
2017-07-02T23:59:59Z,111,161,141,95,161,111,138,93,0,5,0,0,0,0,0,0,4,157,3,109,0,161,0,111,0,0,0,0,0,0,0,0,129,29,3,86,27,6,159,2,0,109,11,0,161,0,0,111,5,0,159,2,0,109,12,0,161,0,0,111,5,0,161,0,0,111,5,0,161,0,0,111,5,0,127,32,2,85,33,1,161,0,0,111,5,0,161,0,0,111,5,0,0,159,2,0,110,1,0,159,2,0,110,1,129,30,2,89,28,1,161,0,0,111,5,0,102,42,17,74,34,16
2017-07-03T23:59:59Z,116,170,147,98,170,116,142,95,2,6,0,0,0,0,0,0,7,163,5,112,0,170,0,116,0,0,0,0,0,0,0,0,132,31,7,87,29,9,166,4,0,113,13,0,168,2,0,115,7,0,167,3,0,114,12,0,168,2,0,115,7,0,168,2,0,115,7,0,168,2,0,115,7,0,132,33,5,88,33,3,170,0,0,116,6,0,170,0,0,116,6,0,0,165,5,0,113,3,0,165,5,0,113,3,133,32,5,91,30,3,168,2,0,115,7,0,108,45,17,77,36,16
2017-07-04T23:59:59Z,115,168,146,98,168,115,141,95,0,5,0,0,0,0,0,0,5,163,4,112,0,168,0,115,0,0,0,0,0,0,0,0,133,30,5,88,29,8,163,5,0,111,14,0,166,2,0,114,7,0,163,5,0,111,14,0,166,2,0,114,7,0,166,2,0,114,7,0,166,2,0,114,7,0,130,35,3,86,35,2,168,0,0,115,6,0,168,0,0,115,6,0,0,165,3,0,113,2,0,165,3,0,113,2,133,32,3,91,30,2,168,0,0,115,6,0,107,45,16,77,35,16
2017-07-05T23:59:59Z,115,167,146,99,167,115,143,97,0,6,0,0,0,0,0,0,3,164,2,113,0,167,0,115,0,0,0,0,0,0,0,0,131,30,6,87,29,9,162,5,0,111,15,0,167,0,0,115,6,0,162,5,0,111,15,0,165,2,0,114,7,0,165,2,0,114,7,0,165,2,0,114,7,0,129,36,2,86,36,1,167,0,0,115,6,0,167,0,0,115,6,0,0,165,2,0,114,1,0,165,2,0,114,1,132,33,2,92,31,1,165,2,0,114,7,0,107,44,16,77,35,17
2017-07-06T23:59:59Z,115,169,146,98,169,115,143,96,0,6,0,0,0,0,0,0,5,164,3,112,0,167,0,114,0,0,0,0,0,0,0,0,131,32,6,87,30,9,164,4,1,112,14,1,166,2,1,114,7,1,164,4,1,112,14,1,167,2,0,114,7,0,167,2,0,114,7,0,167,2,0,114,7,0,130,35,4,86,35,2,169,0,0,115,6,0,169,0,0,115,6,0,0,165,4,0,113,2,0,165,4,0,113,2,131,33,5,91,31,3,168,1,0,115,7,0,106,45,18,77,35,17
2017-07-07T23:59:59Z,115,166,143,98,166,115,140,96,1,7,0,0,0,0,0,0,6,160,4,112,0,166,0,115,0,0,0,0,0,0,0,0,131,30,5,88,29,8,164,2,0,113,13,0,166,0,0,115,6,0,162,4,0,111,15,0,166,0,0,115,6,0,166,0,0,115,6,0,166,0,0,115,6,0,127,35,4,85,36,2,166,0,0,115,6,0,166,0,0,115,6,0,0,162,4,0,113,2,0,162,4,0,113,2,131,31,4,92,30,2,166,0,0,115,6,0,107,42,17,78,34,17
2017-07-08T23:59:59Z,117,170,146,100,170,117,141,97,2,7,0,0,0,0,0,0,5,165,3,114,0,170,0,117,0,0,0,0,0,0,0,0,133,32,5,89,31,9,164,6,0,114,15,0,168,2,0,116,7,0,164,6,0,114,16,0,168,2,0,116,7,0,168,2,0,116,7,0,168,2,0,116,7,0,129,37,4,88,37,2,170,0,0,117,6,0,170,0,0,117,6,0,0,166,4,0,115,2,0,166,4,0,115,2,133,33,4,94,32,2,170,0,0,117,6,0,107,45,18,77,36,19
2017-07-09T23:59:59Z,116,171,149,100,171,116,146,98,1,7,0,0,0,0,0,0,4,167,3,114,0,169,0,115,0,0,0,0,0,0,0,0,134,33,4,88,32,8,166,5,0,113,15,0,170,1,0,115,7,0,165,6,0,112,16,0,171,0,0,116,6,0,171,0,0,116,6,0,171,0,0,116,6,0,130,39,2,86,38,1,171,0,0,116,6,0,171,0,0,116,6,0,0,169,2,0,115,1,0,169,2,0,115,1,136,33,2,94,32,1,171,0,0,116,6,0,110,42,19,78,34,19
2017-07-10T23:59:59Z,115,168,147,99,168,115,144,97,0,7,0,0,0,0,0,0,4,164,3,113,0,168,0,115,0,0,0,0,0,0,0,0,133,30,5,88,29,9,163,5,0,111,15,0,168,0,0,115,6,0,162,6,0,110,16,0,166,2,0,114,7,0,166,2,0,114,7,0,166,2,0,114,7,0,129,37,2,85,37,1,168,0,0,115,6,0,168,0,0,115,6,0,0,166,2,0,114,1,0,166,2,0,114,1,133,33,2,92,31,1,166,2,0,114,7,0,107,44,17,77,35,18
2017-07-11T23:59:59Z,116,170,149,100,170,116,145,97,4,9,0,0,0,0,0,0,3,167,2,114,0,170,0,116,0,0,0,0,0,0,0,0,133,33,4,87,31,9,165,5,0,112,15,1,167,3,0,114,8,1,163,7,0,110,17,1,167,3,0,114,8,1,167,3,0,114,8,1,167,3,0,114,8,1,129,39,2,85,39,2,170,0,0,116,6,1,170,0,0,116,6,1,0,168,2,0,115,2,0,168,2,0,115,2,133,35,2,92,33,2,167,3,0,114,8,1,106,45,19,76,36,19
2017-07-12T23:59:59Z,113,165,144,97,165,113,141,95,2,8,0,0,0,0,0,0,2,163,1,112,0,165,0,113,0,0,0,0,0,0,0,0,133,29,3,87,29,8,162,3,0,110,14,0,165,0,0,113,6,0,161,4,0,109,15,0,165,0,0,113,6,0,165,0,0,113,6,0,165,0,0,113,6,0,129,34,2,85,36,1,165,0,0,113,6,0,165,0,0,113,6,0,0,163,2,0,112,1,0,163,2,0,112,1,133,30,2,92,30,1,165,0,0,113,6,0,106,40,19,76,33,19
2017-07-13T23:59:59Z,117,175,152,100,175,117,147,97,1,8,0,0,0,0,0,0,5,170,3,114,0,173,0,116,0,0,0,0,0,0,0,0,135,31,9,86,30,11,168,7,0,111,17,0,175,0,0,117,6,0,169,6,0,112,16,0,173,2,0,116,7,0,173,2,0,116,7,0,173,2,0,116,7,0,133,38,4,86,38,2,175,0,0,117,6,0,175,0,0,117,6,0,0,171,4,0,115,2,0,171,4,0,115,2,139,32,4,94,31,2,175,0,0,117,6,0,110,45,20,79,34,19
2017-07-14T23:59:59Z,113,167,144,96,167,113,142,95,1,8,0,0,0,0,0,0,5,162,3,110,0,167,0,113,0,0,0,0,0,0,0,0,133,28,6,86,28,9,164,3,0,110,14,0,167,0,0,113,6,0,163,4,0,109,15,0,167,0,0,113,6,0,167,0,0,113,6,0,167,0,0,113,6,0,130,33,4,85,35,2,167,0,0,113,6,0,167,0,0,113,6,0,0,163,4,0,111,2,0,163,4,0,111,2,134,29,4,92,29,2,167,0,0,113,6,0,106,42,19,76,33,19
2017-07-15T23:59:59Z,115,171,150,99,171,115,147,97,1,8,0,0,0,0,0,0,3,168,2,113,0,171,0,115,0,0,0,0,0,0,0,0,137,31,3,88,29,8,168,3,0,112,13,0,171,0,0,115,5,0,167,4,0,111,14,0,171,0,0,115,5,0,171,0,0,115,5,0,171,0,0,115,5,0,133,36,2,86,36,1,171,0,0,115,5,0,171,0,0,115,5,0,0,169,2,0,114,1,0,169,2,0,114,1,137,32,2,93,30,1,171,0,0,115,5,0,111,41,19,78,33,19
2017-07-16T23:59:59Z,114,166,145,98,166,114,142,96,1,7,0,0,0,0,0,0,3,163,2,112,0,166,1,114,0,0,0,0,0,0,0,0,134,29,3,88,29,8,163,3,0,111,14,0,166,0,0,114,6,0,162,4,0,110,15,0,166,0,0,114,6,0,166,0,0,114,6,0,166,0,0,114,6,0,130,34,2,86,36,1,166,0,0,114,6,0,166,0,0,114,6,0,0,164,2,0,113,1,0,164,2,0,113,1,134,30,2,93,30,1,166,0,0,114,6,0,109,41,16,78,32,18
2017-07-17T23:59:59Z,113,169,151,99,169,113,148,97,2,8,0,0,0,0,0,0,1,168,1,112,0,169,0,113,0,0,0,0,0,0,0,0,137,30,2,87,28,8,165,4,0,109,14,0,169,0,0,113,5,0,165,4,0,109,14,0,169,0,0,113,5,0,169,0,0,113,5,0,169,0,0,113,5,0,134,35,0,86,35,0,169,0,0,113,5,0,169,0,0,113,5,0,0,169,0,0,113,0,0,169,0,0,113,0,138,31,0,93,29,0,169,0,0,113,5,0,105,44,20,75,34,19
2017-07-18T23:59:59Z,115,170,152,101,170,115,148,98,0,7,0,0,0,0,0,0,2,168,2,114,0,170,0,115,0,0,0,0,0,0,0,0,138,29,3,89,28,8,166,4,0,111,15,0,170,0,0,115,6,0,165,5,0,110,16,0,169,1,0,114,7,0,169,1,0,114,7,0,169,1,0,114,7,0,134,36,0,87,37,0,170,0,0,115,6,0,170,0,0,115,6,0,0,170,0,0,115,0,0,170,0,0,115,0,138,32,0,94,31,0,169,1,0,114,7,0,108,43,19,77,34,19
2017-07-19T23:59:59Z,115,171,149,99,171,115,146,97,2,7,0,0,0,0,0,0,5,166,3,112,0,171,0,115,0,0,0,0,0,0,0,0,136,29,6,88,28,9,167,4,0,111,14,0,171,0,0,115,6,0,167,4,0,111,14,0,171,0,0,115,6,0,171,0,0,115,6,0,171,0,0,115,6,0,133,34,4,87,35,2,171,0,0,115,6,0,171,0,0,115,6,0,0,167,4,0,113,2,0,167,4,0,113,2,137,30,4,93,29,2,171,0,0,115,6,0,108,43,20,77,34,18
2017-07-20T23:59:59Z,116,173,151,100,173,116,148,98,1,6,0,0,0,0,0,0,5,168,3,113,0,173,0,116,0,0,0,0,0,0,0,0,140,27,6,90,27,8,170,3,0,113,13,0,173,0,0,116,6,0,170,3,0,113,14,0,173,0,0,116,6,0,173,0,0,116,6,0,173,0,0,116,6,0,139,30,4,91,33,2,173,0,0,116,6,0,173,0,0,116,6,0,0,169,4,0,114,2,0,169,4,0,114,2,141,28,4,95,28,2,173,0,0,116,6,0,109,45,19,77,35,18
2017-07-21T23:59:59Z,112,169,150,98,169,112,147,96,1,6,0,0,0,0,0,0,1,168,1,111,0,169,0,112,0,0,0,0,0,0,0,0,141,27,1,89,26,6,166,3,0,109,12,0,169,0,0,112,5,0,165,4,0,108,13,0,169,0,0,112,5,0,169,0,0,112,5,0,169,0,0,112,5,0,137,32,0,87,33,0,169,0,0,112,5,0,169,0,0,112,5,0,0,169,0,0,112,0,0,169,0,0,112,0,141,28,0,93,27,0,169,0,0,112,5,0,103,44,22,73,35,18
2017-07-22T23:59:59Z,114,169,147,98,169,114,144,96,2,7,0,0,0,0,0,0,4,165,3,112,0,169,0,114,0,0,0,0,0,0,0,0,135,30,4,86,29,7,166,3,0,111,12,0,168,1,0,113,6,0,167,2,0,112,11,0,169,0,0,114,5,0,169,0,0,114,5,0,169,0,0,114,5,0,135,32,2,88,33,1,169,0,0,114,5,0,169,0,0,114,5,0,0,167,2,0,113,1,0,167,2,0,113,1,137,30,2,92,29,1,169,0,0,114,5,0,105,45,19,75,35,18
2017-07-23T23:59:59Z,116,172,150,100,172,116,147,98,2,7,0,0,0,0,0,0,3,169,2,114,0,172,0,116,0,0,0,0,0,0,0,0,141,28,3,91,27,7,169,3,0,113,12,0,172,0,0,116,5,0,168,4,0,112,13,0,172,0,0,116,5,0,172,0,0,116,5,0,172,0,0,116,5,0,137,33,2,89,34,1,172,0,0,116,5,0,172,0,0,116,5,0,0,170,2,0,115,1,0,170,2,0,115,1,141,29,2,95,28,1,172,0,0,116,5,0,107,46,19,76,36,18
2017-07-24T23:59:59Z,117,175,153,101,175,117,150,99,3,7,0,0,0,0,0,0,3,172,2,115,0,174,0,116,0,0,0,0,0,0,0,0,141,31,3,90,29,7,170,5,0,113,13,0,173,2,0,116,6,0,169,6,0,112,14,0,173,2,0,116,6,0,173,2,0,116,6,0,173,2,0,116,6,0,137,36,2,88,36,1,173,2,0,116,8,0,175,0,0,117,5,0,0,173,2,0,116,1,0,173,2,0,116,1,140,33,2,93,31,1,174,1,0,116,6,0,108,47,20,77,36,18
2017-07-25T23:59:59Z,115,171,149,99,171,115,146,97,5,9,0,0,0,0,0,0,5,166,3,113,0,171,0,115,0,0,0,0,0,0,0,0,136,30,5,88,30,9,167,4,0,111,14,1,171,0,0,115,7,1,167,4,0,111,14,1,171,0,0,115,7,1,171,0,0,115,7,1,171,0,0,115,7,1,133,35,3,87,36,2,171,0,0,115,7,1,171,0,0,115,7,1,0,168,3,0,114,2,0,168,3,0,114,2,137,31,3,93,31,2,171,0,0,115,7,1,106,45,20,76,35,18
2017-07-26T23:59:59Z,116,172,149,99,172,116,146,97,1,6,0,0,0,0,0,0,5,167,3,113,0,172,0,116,0,0,0,0,0,0,0,0,136,31,5,88,30,7,169,3,0,113,13,0,171,1,0,115,7,0,168,4,0,112,14,0,171,1,0,115,7,0,171,1,0,115,7,0,171,1,0,115,7,0,133,35,4,87,36,2,172,0,0,116,6,0,172,0,0,116,6,0,0,168,4,0,114,2,0,168,4,0,114,2,137,31,4,93,30,2,172,0,0,116,6,0,108,45,19,77,35,17
2017-07-27T23:59:59Z,114,168,145,97,168,114,142,95,0,5,0,0,0,0,0,0,5,163,3,111,0,168,0,114,0,0,0,0,0,0,0,0,134,29,5,87,28,7,166,2,0,112,11,0,168,0,0,114,5,0,166,2,0,112,12,0,168,0,0,114,5,0,168,0,0,114,5,0,168,0,0,114,5,0,132,32,4,87,34,2,168,0,0,114,5,0,168,0,0,114,5,0,0,164,4,0,112,2,0,164,4,0,112,2,134,30,4,91,29,2,168,0,0,114,5,0,104,45,19,75,35,17
2017-07-28T23:59:59Z,114,170,149,98,170,114,146,96,0,5,0,0,0,0,0,0,4,166,3,112,0,168,0,113,0,0,0,0,0,0,0,0,136,30,4,87,29,7,168,2,0,112,12,0,170,0,0,114,6,0,168,2,0,112,12,0,170,0,0,114,6,0,170,0,0,114,6,0,170,0,0,114,6,0,135,33,2,88,34,1,170,0,0,114,6,0,170,0,0,114,6,0,0,168,2,0,113,1,0,168,2,0,113,1,136,32,2,91,31,1,168,2,0,113,7,0,104,46,20,75,35,17
2017-07-29T23:59:59Z,113,168,149,99,168,113,146,97,0,6,0,0,0,0,0,0,3,165,2,111,0,168,0,113,0,0,0,0,0,0,0,0,137,28,3,89,27,7,166,2,0,111,12,0,168,0,0,113,5,0,166,2,0,111,12,0,168,0,0,113,5,0,168,0,0,113,5,0,168,0,0,113,5,0,133,33,2,87,33,1,168,0,0,113,5,0,168,0,0,113,5,0,0,166,2,0,112,1,0,166,2,0,112,1,135,31,2,92,29,1,168,0,0,113,5,0,105,44,19,75,34,18
2017-07-30T23:59:59Z,115,171,151,100,171,115,146,97,2,8,0,0,0,0,0,0,4,167,3,113,0,170,0,114,0,0,0,0,0,0,0,0,137,31,3,88,30,7,168,3,0,113,13,0,169,2,0,114,7,0,167,4,0,112,14,0,169,2,0,114,7,0,169,2,0,114,7,0,169,2,0,114,7,0,135,34,2,88,35,1,171,0,0,115,6,0,171,0,0,115,6,0,0,169,2,0,114,1,0,169,2,0,114,1,137,32,2,93,31,1,169,2,0,114,7,0,104,47,20,75,36,18
2017-07-31T23:59:59Z,116,174,154,101,174,116,151,99,0,6,0,0,0,0,0,0,3,171,2,114,0,174,0,116,0,0,0,0,0,0,0,0,139,32,3,89,29,7,172,2,0,114,12,0,173,1,0,115,6,0,172,2,0,114,12,0,174,0,0,116,5,0,174,0,0,116,5,0,174,0,0,116,5,0,138,34,2,90,33,1,174,0,0,116,6,0,174,0,0,116,6,0,0,172,2,0,115,1,0,172,2,0,115,1,139,33,2,94,30,1,173,1,0,115,6,0,108,46,20,76,36,18
2017-08-01T23:59:59Z,115,172,150,99,171,115,146,96,0,6,0,0,0,0,0,0,5,167,3,112,0,172,0,115,0,0,0,0,0,0,0,0,138,29,5,88,28,8,169,3,0,112,13,0,171,1,0,114,6,0,168,4,0,111,14,0,171,1,0,114,6,0,171,1,0,114,6,0,171,1,0,114,6,0,136,32,4,88,33,2,172,0,0,115,5,0,172,0,0,115,5,0,0,168,4,0,113,2,0,168,4,0,113,2,138,30,4,93,29,2,172,0,0,115,5,0,108,46,18,76,35,17
2017-08-02T23:59:59Z,117,177,155,101,177,117,152,99,0,6,0,0,0,0,0,0,6,171,4,114,0,175,0,116,0,0,0,0,0,0,0,0,141,30,6,89,29,9,174,3,0,114,14,0,177,0,0,117,6,0,174,3,0,114,14,0,177,0,0,117,6,0,177,0,0,117,6,0,177,0,0,117,6,0,139,34,4,89,35,2,177,0,0,117,6,0,177,0,0,117,6,0,0,173,4,0,115,2,0,173,4,0,115,2,142,31,4,95,30,2,177,0,0,117,6,0,111,46,20,78,35,18
2017-08-03T23:59:59Z,115,174,157,101,174,115,154,99,0,5,0,0,0,0,0,0,3,171,2,113,0,174,0,115,0,0,0,0,0,0,0,0,142,29,3,90,28,6,170,4,0,112,13,0,172,2,0,114,7,0,170,4,0,112,13,0,172,2,0,114,7,0,172,2,0,114,7,0,172,2,0,114,7,0,140,32,2,90,33,1,174,0,0,115,6,0,174,0,0,115,6,0,0,172,2,0,114,1,0,172,2,0,114,1,142,30,2,94,29,1,172,2,0,114,7,0,106,48,20,75,36,17
2017-08-04T23:59:59Z,114,170,155,101,170,114,152,99,1,7,0,0,0,0,0,0,1,169,1,113,0,170,0,114,0,0,0,0,0,0,0,0,145,25,0,93,26,6,167,3,0,111,15,0,170,0,0,114,6,0,167,3,0,111,14,0,170,0,0,114,6,0,170,0,0,114,6,0,170,0,0,114,6,0,141,29,0,91,33,0,170,0,0,114,6,0,170,0,0,114,6,0,0,170,0,0,114,0,0,170,0,0,114,0,144,26,0,96,27,0,170,0,0,114,6,0,104,47,19,75,35,18
2017-08-05T23:59:59Z,111,167,152,98,167,111,149,96,2,7,0,0,0,0,0,0,1,166,1,110,0,167,0,111,0,0,0,0,0,0,0,0,142,24,1,90,24,5,165,2,0,109,11,0,167,0,0,111,5,0,164,3,0,108,12,0,167,0,0,111,5,0,167,0,0,111,5,0,167,0,0,111,5,0,138,29,0,88,31,0,167,0,0,111,5,0,167,0,0,111,5,0,0,167,0,0,111,0,0,167,0,0,111,0,141,26,0,93,26,0,167,0,0,111,5,0,102,46,19,72,35,17
2017-08-06T23:59:58Z,118,178,161,104,178,118,158,102,0,5,0,0,0,0,0,0,3,175,2,116,0,178,0,118,0,0,0,0,0,0,0,0,147,28,3,93,28,6,174,4,0,114,14,0,177,1,0,117,7,0,173,5,0,113,15,0,177,1,0,117,7,0,178,0,0,118,6,0,178,0,0,118,6,0,143,33,2,91,35,1,178,0,0,118,6,0,178,0,0,118,6,0,0,176,2,0,117,1,0,176,2,0,117,1,147,29,2,97,29,1,178,0,0,118,6,0,112,46,20,79,35,17
2017-08-07T23:59:59Z,119,179,161,104,179,119,158,102,2,7,0,0,0,0,0,0,3,176,2,117,0,177,0,118,0,0,0,0,0,0,0,0,146,30,3,93,29,6,174,5,0,115,14,0,177,2,0,118,7,0,173,5,0,114,14,0,178,0,0,118,6,0,178,0,0,118,6,0,178,0,0,118,6,0,143,34,2,92,35,1,179,0,0,119,6,0,179,0,0,119,6,0,0,177,2,0,118,1,0,177,2,0,118,1,146,31,2,97,30,1,179,0,0,119,6,0,112,48,19,79,36,17
2017-08-08T23:59:59Z,119,180,160,103,180,119,157,101,1,6,0,0,0,0,0,0,5,175,3,116,0,180,0,119,0,0,0,0,0,0,0,0,147,28,5,93,28,7,177,3,0,116,13,0,180,0,0,119,6,0,176,3,0,115,13,0,179,0,0,118,6,0,179,0,0,118,6,0,179,0,0,118,6,0,144,32,4,92,34,2,180,0,0,119,6,0,180,0,0,119,6,0,0,176,4,0,117,2,0,176,4,0,117,2,147,29,4,97,29,2,180,0,0,119,6,0,114,47,19,80,35,17
2017-08-09T23:59:59Z,117,178,158,101,178,117,155,99,1,6,0,0,0,0,0,0,5,173,3,114,0,178,0,117,0,0,0,0,0,0,0,0,144,29,5,91,27,7,173,5,0,113,13,0,176,2,0,116,6,0,172,5,0,112,13,0,175,2,0,115,6,0,175,2,0,115,6,0,175,2,0,115,6,0,141,33,4,90,33,2,178,0,0,117,5,0,178,0,0,117,5,0,0,174,4,0,115,2,0,174,4,0,115,2,144,30,4,95,28,2,178,0,0,117,5,0,114,44,20,79,34,17
2017-08-10T23:59:59Z,117,177,159,102,177,117,154,98,2,7,0,0,0,0,0,0,3,174,2,115,0,177,0,117,0,0,0,0,0,0,0,0,143,30,4,90,28,7,173,4,0,113,13,0,176,1,0,116,6,0,172,4,0,112,13,0,175,1,0,115,6,0,175,1,0,115,6,0,175,1,0,115,6,0,141,34,2,90,34,1,177,0,0,117,5,0,177,0,0,117,5,0,0,175,2,0,116,1,0,175,2,0,116,1,143,32,2,94,30,1,175,2,0,115,7,0,113,45,19,78,35,17
2017-08-11T23:59:59Z,115,174,155,100,174,115,150,97,0,6,0,0,0,0,0,0,3,171,2,113,0,173,1,114,0,0,0,0,0,0,0,0,141,30,3,89,28,7,171,3,0,113,12,0,172,2,0,114,7,0,170,3,0,112,12,0,173,0,0,114,6,0,173,0,0,114,6,0,173,0,0,114,6,0,140,32,2,90,32,1,174,0,0,115,6,0,174,0,0,115,6,0,0,172,2,0,114,1,0,172,2,0,114,1,143,29,2,95,28,1,171,2,1,113,7,1,108,47,19,75,36,18
2017-08-12T23:59:59Z,113,172,154,98,172,113,152,97,0,5,0,0,0,0,0,0,3,169,2,111,0,172,0,113,0,0,0,0,0,0,0,0,140,28,4,88,26,7,169,3,0,110,12,0,172,0,0,113,5,0,168,3,0,109,12,0,171,0,0,112,5,0,171,0,0,112,5,0,171,0,0,112,5,0,138,32,2,88,32,1,172,0,0,113,5,0,172,0,0,113,5,0,0,170,2,0,112,1,0,170,2,0,112,1,141,29,2,93,27,1,172,0,0,113,5,0,109,44,19,75,34,17
2017-08-13T23:59:59Z,116,176,155,99,176,116,154,98,1,6,0,0,0,0,0,0,5,171,3,113,0,174,0,115,0,0,0,0,0,0,0,0,143,27,6,90,26,9,172,4,0,112,13,1,176,0,0,116,5,1,172,3,0,112,12,1,175,0,0,115,5,1,175,0,0,115,5,1,175,0,0,115,5,1,141,31,4,90,32,3,176,0,0,116,5,1,176,0,0,116,5,1,0,172,4,0,114,3,0,172,4,0,114,3,143,29,4,94,28,3,176,0,0,116,5,1,114,44,18,79,33,16
2017-08-14T23:59:59Z,120,183,159,102,183,120,156,99,2,8,0,0,0,0,0,0,6,177,4,117,0,183,0,120,0,0,0,0,0,0,0,0,146,31,6,91,30,9,180,3,0,117,14,1,182,1,0,119,7,1,179,3,0,116,14,1,181,1,0,118,7,1,181,1,0,118,7,1,181,1,0,118,7,1,145,34,4,92,35,3,183,0,0,120,6,1,183,0,0,120,6,1,0,179,4,0,118,3,0,179,4,0,118,3,147,32,4,97,31,3,182,1,0,119,7,1,117,46,20,81,35,18
2017-08-15T23:59:59Z,120,183,159,102,182,120,155,100,2,7,0,0,0,0,0,0,6,177,4,117,0,183,0,120,0,0,0,0,0,0,0,0,143,32,8,89,31,11,179,4,0,117,14,1,183,0,0,120,6,1,178,4,0,116,14,1,182,0,0,119,6,1,182,0,0,119,6,1,182,0,0,119,6,1,142,37,4,90,37,3,183,0,0,120,6,1,183,0,0,120,6,1,0,179,4,0,118,3,0,179,4,0,118,3,146,33,4,96,32,3,183,0,0,120,6,1,117,46,20,81,35,18
2017-08-16T23:59:59Z,119,178,158,103,178,119,154,100,1,7,0,0,0,0,0,0,1,177,1,118,0,178,0,119,0,0,0,0,0,0,0,0,146,32,0,93,31,7,177,1,0,118,13,1,178,0,0,119,6,1,174,3,0,115,14,1,177,0,0,118,6,1,177,0,0,118,6,1,177,0,0,118,6,1,143,35,0,92,36,1,178,0,0,119,6,1,178,0,0,119,6,1,0,178,0,0,119,1,0,178,0,0,119,1,145,33,0,97,32,1,178,0,0,119,6,1,115,44,19,81,34,18
2017-08-17T23:59:59Z,120,182,160,103,182,120,156,100,1,8,0,0,0,0,0,0,4,178,3,118,0,182,0,120,0,0,0,0,0,0,0,0,146,33,3,91,31,8,180,2,0,118,12,1,182,0,0,120,5,1,178,3,0,116,13,1,181,0,0,119,5,1,181,0,0,119,5,1,181,0,0,119,5,1,143,37,2,90,37,2,182,0,0,120,5,1,182,0,0,120,5,1,0,180,2,0,119,2,0,180,2,0,119,2,146,34,2,96,32,2,182,0,0,120,5,1,118,45,19,82,34,18
2017-08-18T23:59:59Z,117,174,152,100,174,117,148,97,0,6,0,0,0,0,0,0,4,170,3,115,0,174,0,117,0,0,0,0,0,0,0,0,137,32,5,87,30,9,171,3,0,114,13,1,174,0,0,117,5,1,170,3,0,113,13,1,173,0,0,116,5,1,173,0,0,116,5,1,173,0,0,116,5,1,136,36,2,88,36,2,174,0,0,117,5,1,174,0,0,117,5,1,0,172,2,0,116,2,0,172,2,0,116,2,139,33,2,94,31,2,174,0,0,117,5,1,116,41,17,81,32,17
2017-08-19T23:59:59Z,118,177,153,100,177,118,149,97,1,6,0,0,0,0,0,0,5,172,3,115,0,174,0,117,0,0,0,0,0,0,0,0,138,33,6,87,32,9,175,1,1,116,11,2,177,0,0,118,6,1,174,1,1,115,11,2,176,0,0,117,6,1,176,0,0,117,6,1,176,0,0,117,6,1,137,35,5,88,35,4,177,0,0,118,6,1,177,0,0,118,6,1,0,172,5,0,115,4,0,172,5,0,115,4,138,34,5,92,33,4,177,0,0,118,6,1,118,41,18,83,31,16